When you browse on this site, cookies collect data to enhance your experience and personalize the content and advertising you see.
Visit our Privacy Policy to learn more. By continuing to use the site, you agree to this use of cookies and data.
  • In Portugal
  • List of Countries
  • For 7 days
  • Water Temperature
  • Weather Map
  • Weather Widgets
  • user-avatar
    Login

    Hourly Weather Zabiele

    Today, 2 June, Tuesday

    Time Temperature Precipitation Wind Pressure Humidity
    00:00 +9°C° 0 mm 3 mps 753 mmHg 90%
    01:00 +8°C° 0 mm 3 mps 753 mmHg 93%
    02:00 +7°C° 0 mm 3 mps 753 mmHg 94%
    03:00 +7°C° 0 mm 3 mps 752 mmHg 94%
    04:00 +7°C° 0 mm 3 mps 752 mmHg 95%
    05:00 +7°C° 0 mm 4 mps 752 mmHg 87%
    06:00 +10°C° 0 mm 4 mps 752 mmHg 80%
    07:00 +12°C° 0 mm 4 mps 752 mmHg 73%
    08:00 +13°C° 0 mm 5 mps 752 mmHg 67%
    09:00 +14°C° 0 mm 5 mps 752 mmHg 61%
    10:00 +15°C° 0 mm 5 mps 751 mmHg 55%
    11:00 +16°C° 0 mm 5 mps 751 mmHg 54%
    12:00 +16°C° 0 mm 5 mps 751 mmHg 53%
    13:00 +17°C° 0 mm 5 mps 750 mmHg 52%
    14:00 +17°C° 0 mm 5 mps 750 mmHg 53%
    15:00 +17°C° 0 mm 5 mps 749 mmHg 55%
    16:00 +17°C° 0 mm 5 mps 749 mmHg 56%
    17:00 +17°C° 0 mm 4 mps 749 mmHg 63%
    18:00 +14°C° 0 mm 4 mps 748 mmHg 70%
    19:00 +13°C° 0 mm 3 mps 748 mmHg 76%
    20:00 +12°C° 0 mm 3 mps 748 mmHg 81%
    21:00 +10°C° 0 mm 3 mps 748 mmHg 85%
    22:00 +9°C° 0 mm 3 mps 748 mmHg 89%
    23:00 +8°C° 0 mm 3 mps 748 mmHg 90%

    Tomorrow, 3 June, Wednesday

    Time Temperature Precipitation Wind Pressure Humidity
    00:00 +7°C° 0 mm 3 mps 747 mmHg 91%
    01:00 +7°C° 0 mm 3 mps 747 mmHg 92%
    02:00 +7°C° 0 mm 3 mps 747 mmHg 92%
    03:00 +5°C° 0 mm 3 mps 746 mmHg 92%
    04:00 +5°C° 0 mm 3 mps 746 mmHg 92%
    05:00 +8°C° 0 mm 3 mps 746 mmHg 86%
    06:00 +10°C° 0 mm 3 mps 746 mmHg 79%
    07:00 +12°C° 0 mm 3 mps 746 mmHg 73%
    08:00 +13°C° 0 mm 3 mps 746 mmHg 68%
    09:00 +14°C° 0 mm 4 mps 745 mmHg 64%
    10:00 +15°C° 0 mm 4 mps 745 mmHg 60%
    11:00 +15°C° 0.1 mm 4 mps 745 mmHg 64%
    12:00 +14°C° 0.1 mm 4 mps 745 mmHg 68%
    13:00 +13°C° 0.1 mm 4 mps 745 mmHg 73%
    14:00 +14°C° 0.1 mm 4 mps 744 mmHg 71%
    15:00 +15°C° 0.1 mm 4 mps 744 mmHg 70%
    16:00 +15°C° 0.1 mm 4 mps 743 mmHg 68%
    17:00 +15°C° 0.3 mm 4 mps 743 mmHg 74%
    18:00 +14°C° 0.3 mm 3 mps 743 mmHg 79%
    19:00 +14°C° 0.3 mm 2 mps 743 mmHg 84%
    20:00 +12°C° 0 mm 2 mps 743 mmHg 87%
    21:00 +10°C° 0 mm 2 mps 743 mmHg 90%
    22:00 +9°C° 0 mm 3 mps 743 mmHg 93%
    23:00 +9°C° 0 mm 2 mps 743 mmHg 94%

    Day after tomorrow, 4 June, Thursday

    Time Temperature Precipitation Wind Pressure Humidity
    00:00 +8°C° 0 mm 2 mps 743 mmHg 94%
    01:00 +8°C° 0 mm 2 mps 742 mmHg 95%
    02:00 +8°C° 0 mm 2 mps 742 mmHg 95%
    03:00 +8°C° 0 mm 2 mps 742 mmHg 95%
    04:00 +8°C° 0 mm 2 mps 742 mmHg 95%
    05:00 +9°C° 0 mm 2 mps 742 mmHg 90%
    06:00 +12°C° 0 mm 1 mps 742 mmHg 85%
    07:00 +14°C° 0 mm 1 mps 741 mmHg 80%
    08:00 +15°C° 0 mm 1 mps 741 mmHg 73%
    09:00 +18°C° 0 mm 1 mps 741 mmHg 66%
    10:00 +18°C° 0 mm 0 mps 741 mmHg 59%
    11:00 +20°C° 0.2 mm 1 mps 740 mmHg 58%
    12:00 +20°C° 0.2 mm 1 mps 740 mmHg 56%
    13:00 +20°C° 0.2 mm 2 mps 740 mmHg 54%
    14:00 +21°C° 0.1 mm 1 mps 740 mmHg 54%
    15:00 +21°C° 0.1 mm 1 mps 739 mmHg 53%
    16:00 +21°C° 0.1 mm 1 mps 739 mmHg 52%
    17:00 +20°C° 0 mm 1 mps 739 mmHg 59%
    18:00 +19°C° 0 mm 1 mps 739 mmHg 65%
    19:00 +17°C° 0 mm 2 mps 739 mmHg 71%
    20:00 +15°C° 0 mm 2 mps 739 mmHg 75%
    21:00 +14°C° 0 mm 2 mps 739 mmHg 78%
    22:00 +12°C° 0 mm 3 mps 739 mmHg 82%
    23:00 +12°C° 0 mm 3 mps 739 mmHg 84%

    5 June, Friday

    Time Temperature Precipitation Wind Pressure Humidity
    00:00 +11°C° 0 mm 3 mps 738 mmHg 87%
    01:00 +11°C° 0 mm 3 mps 738 mmHg 90%
    02:00 +10°C° 0 mm 4 mps 738 mmHg 90%
    03:00 +10°C° 0 mm 4 mps 738 mmHg 90%
    04:00 +10°C° 0 mm 4 mps 737 mmHg 90%
    05:00 +12°C° 0 mm 5 mps 737 mmHg 85%
    06:00 +14°C° 0 mm 5 mps 737 mmHg 80%
    07:00 +15°C° 0 mm 6 mps 737 mmHg 75%
    08:00 +17°C° 0 mm 6 mps 737 mmHg 75%
    09:00 +18°C° 0 mm 7 mps 737 mmHg 74%
    10:00 +20°C° 0 mm 7 mps 736 mmHg 74%
    11:00 +21°C° 0.4 mm 7 mps 736 mmHg 75%
    12:00 +21°C° 0.4 mm 6 mps 736 mmHg 76%
    13:00 +21°C° 0.4 mm 6 mps 736 mmHg 76%
    14:00 +22°C° 0.5 mm 5 mps 736 mmHg 75%
    15:00 +22°C° 0.5 mm 5 mps 736 mmHg 74%
    16:00 +22°C° 0.5 mm 5 mps 736 mmHg 73%
    17:00 +21°C° 0.7 mm 5 mps 736 mmHg 78%
    18:00 +20°C° 0.7 mm 4 mps 736 mmHg 84%
    19:00 +18°C° 0.7 mm 3 mps 737 mmHg 90%
    20:00 +17°C° 0.3 mm 4 mps 737 mmHg 92%
    21:00 +15°C° 0.3 mm 4 mps 737 mmHg 94%
    22:00 +13°C° 0.3 mm 4 mps 738 mmHg 96%
    23:00 +13°C° 1.3 mm 4 mps 738 mmHg 96%

    6 June, Saturday

    Time Temperature Precipitation Wind Pressure Humidity
    00:00 +12°C° 1.3 mm 5 mps 738 mmHg 96%
    01:00 +12°C° 1.3 mm 5 mps 738 mmHg 95%
    02:00 +10°C° 1.3 mm 5 mps 739 mmHg 95%
    03:00 +10°C° 1.3 mm 6 mps 739 mmHg 95%
    04:00 +9°C° 1.3 mm 6 mps 740 mmHg 94%
    05:00 +9°C° 0.7 mm 5 mps 740 mmHg 93%
    06:00 +10°C° 0.7 mm 5 mps 741 mmHg 92%
    07:00 +11°C° 0.7 mm 4 mps 741 mmHg 90%
    08:00 +12°C° 0.1 mm 4 mps 742 mmHg 84%
    09:00 +14°C° 0.1 mm 4 mps 742 mmHg 78%
    10:00 +16°C° 0.1 mm 3 mps 742 mmHg 72%
    11:00 +17°C° 0.1 mm 4 mps 743 mmHg 68%
    12:00 +18°C° 0.1 mm 4 mps 743 mmHg 64%
    13:00 +19°C° 0.1 mm 4 mps 743 mmHg 60%
    14:00 +19°C° 0.1 mm 4 mps 743 mmHg 61%
    15:00 +19°C° 0.1 mm 4 mps 743 mmHg 62%
    16:00 +19°C° 0.1 mm 4 mps 743 mmHg 62%
    17:00 +18°C° 0.1 mm 3 mps 744 mmHg 68%
    18:00 +17°C° 0.1 mm 3 mps 744 mmHg 73%
    19:00 +15°C° 0.1 mm 2 mps 744 mmHg 79%
    20:00 +14°C° 0 mm 2 mps 744 mmHg 80%
    21:00 +13°C° 0 mm 2 mps 745 mmHg 81%
    22:00 +12°C° 0 mm 2 mps 745 mmHg 83%
    23:00 +10°C° 0 mm 2 mps 745 mmHg 82%

    7 June, Sunday

    Time Temperature Precipitation Wind Pressure Humidity
    00:00 +10°C° 0 mm 2 mps 745 mmHg 81%
    01:00 +9°C° 0 mm 2 mps 745 mmHg 80%
    02:00 +9°C° 0 mm 2 mps 745 mmHg 82%
    03:00 +9°C° 0 mm 2 mps 745 mmHg 84%
    04:00 +9°C° 0 mm 2 mps 745 mmHg 86%
    05:00 +12°C° 0 mm 2 mps 745 mmHg 82%
    06:00 +13°C° 0 mm 2 mps 745 mmHg 79%
    07:00 +15°C° 0 mm 2 mps 746 mmHg 76%
    08:00 +17°C° 0 mm 3 mps 746 mmHg 70%
    09:00 +18°C° 0 mm 3 mps 746 mmHg 65%
    10:00 +19°C° 0 mm 3 mps 746 mmHg 60%
    11:00 +20°C° 0 mm 3 mps 746 mmHg 58%
    12:00 +21°C° 0 mm 3 mps 746 mmHg 56%
    13:00 +21°C° 0 mm 3 mps 746 mmHg 54%
    14:00 +21°C° 0 mm 3 mps 746 mmHg 56%
    15:00 +21°C° 0 mm 3 mps 746 mmHg 58%
    16:00 +21°C° 0 mm 3 mps 746 mmHg 61%
    17:00 +20°C° 0 mm 2 mps 746 mmHg 66%
    18:00 +19°C° 0 mm 2 mps 746 mmHg 71%
    19:00 +18°C° 0 mm 2 mps 746 mmHg 76%
    20:00 +17°C° 0 mm 2 mps 747 mmHg 78%
    21:00 +16°C° 0 mm 1 mps 747 mmHg 80%
    22:00 +16°C° 0 mm 1 mps 747 mmHg 82%
    23:00 +15°C° 0.1 mm 1 mps 747 mmHg 84%
    Show more